Weather History for KRNP - March, 2014

Change the Weather History Date:

Thursday, March 20, 2014

  Actual Average (KFNT) Record (KFNT)
Temperature  
Mean Temperature 32 °F 36 °F  
Max Temperature 36 °F 45 °F 84 °F (2012)
Min Temperature 27 °F 26 °F 2 °F (1923)
Degree Days  
Heating Degree Days 33 29  
Month to date heating degree days 660  
Since 1 July heating degree days 5748  
Cooling Degree Days 0 0  
Month to date cooling degree days 0  
Year to date cooling degree days 0  
Moisture  
Dew Point 26 °F    
Average Humidity 77    
Maximum Humidity 94    
Minimum Humidity 57    
Precipitation  
Precipitation 0.00 in 0.06 in 0.95 in (1996)
Month to date precipitation 1.13  
Year to date precipitation 4.24  
Snow  
Snow 0.00 in 0.20 in 8.10 in (1996)
Month to date snowfall 4.9  
Since 1 July snowfall 43.5  
Snow Depth -    
Sea Level Pressure  
Sea Level Pressure 29.91 in    
Wind  
Wind Speed 14 mph (West)    
Max Wind Speed 21 mph    
Max Gust Speed 29 mph    
Visibility 9 miles    
Events Rain , Snow    
T = Trace of Precipitation, MM = Missing Value Source: NWS Daily Summary

Daily Weather History Graph

Daily Weather History Graph

Search for Another Location

Airport or City:

Trip Planner

Search our weather history database for the weather conditions in past years. The results will help you decide how hot, cold, wet, or windy it might be!

Date:

Astronomy

Mar. 20, 2014 Rise Set
Actual Time 7:39 AM EDT 7:48 PM EDT
Civil Twilight 7:11 AM EDT 8:17 PM EDT
Nautical Twilight 6:38 AM EDT 8:50 PM EDT
Astronomical Twilight 6:04 AM EDT 9:24 PM EDT
Moon No Moon Rise 9:39 AM EDT (3/20)
Length of Visible Light 13h 05m
Length of Day
12h 09m
Waning Gibbous, 84% of the Moon is Illuminated
Mar 20
Waning Gibbous
Mar 23
Last Quarter
Mar 30
New
Apr 7
First Quarter
Apr 15
Full

Hourly Weather History & Observations

Time (EDT) Temp. Windchill Dew Point Humidity Pressure Visibility Wind Dir Wind Speed Gust Speed Precip Events Conditions
12:15 AM 33.8 °F 23.9 °F 32.2 °F 94% 29.78 in 5.0 mi West 15.0 mph - N/A   Overcast
12:35 AM 34.2 °F 22.6 °F 32.4 °F 93% 29.78 in 5.0 mi West 20.7 mph 24.2 mph N/A   Overcast
12:54 AM 34.2 °F 25.2 °F 32.2 °F 92% 29.79 in 7.0 mi West 12.7 mph 21.9 mph N/A   Overcast
1:15 AM 34.0 °F 25.5 °F 32.2 °F 93% 29.79 in 7.0 mi WSW 11.5 mph 16.1 mph N/A   Overcast
1:34 AM 33.8 °F 25.3 °F 32.0 °F 93% 29.79 in 10.0 mi WSW 11.5 mph 21.9 mph N/A   Overcast
1:55 AM 33.8 °F 24.3 °F 32.0 °F 93% 29.79 in 10.0 mi WSW 13.8 mph 23.0 mph N/A Rain Light Rain
2:14 AM 33.4 °F 24.8 °F 31.8 °F 94% 29.79 in 10.0 mi WSW 11.5 mph - N/A Rain Light Rain
2:35 AM 33.3 °F 24.1 °F 31.8 °F 94% 29.80 in 10.0 mi WSW 12.7 mph 17.3 mph N/A   Overcast
2:55 AM 33.3 °F 25.1 °F 31.6 °F 94% 29.80 in 10.0 mi WSW 10.4 mph 19.6 mph N/A   Overcast
3:14 AM 33.1 °F 23.0 °F 31.6 °F 94% 29.81 in 10.0 mi WSW 15.0 mph 21.9 mph N/A Snow Light Snow
3:35 AM 32.9 °F 23.2 °F 31.5 °F 94% 29.81 in 7.0 mi WSW 13.8 mph 20.7 mph N/A Snow Light Snow
3:55 AM 32.9 °F 22.8 °F 31.1 °F 93% 29.81 in 10.0 mi WSW 15.0 mph 20.7 mph N/A   Overcast
4:14 AM 32.9 °F 23.7 °F 30.9 °F 92% 29.81 in 10.0 mi West 12.7 mph 21.9 mph N/A   Overcast
4:35 AM 32.9 °F 23.2 °F 30.6 °F 91% 29.81 in 7.0 mi West 13.8 mph 23.0 mph N/A Snow Light Snow
4:54 AM 32.5 °F 23.2 °F 30.2 °F 91% 29.82 in 10.0 mi WSW 12.7 mph 17.3 mph N/A Snow Light Snow
5:14 AM 32.0 °F 21.2 °F 30.2 °F 93% 29.83 in 7.0 mi West 16.1 mph 21.9 mph N/A Snow Light Snow
5:35 AM 32.0 °F 21.2 °F 29.7 °F 91% 29.83 in 10.0 mi West 16.1 mph 21.9 mph N/A Snow Light Snow
5:54 AM 32.0 °F 22.1 °F 29.1 °F 89% 29.84 in 2.5 mi West 13.8 mph 19.6 mph N/A Snow Light Snow
6:14 AM 32.0 °F 22.5 °F 29.3 °F 90% 29.85 in 10.0 mi West 12.7 mph 17.3 mph N/A   Overcast
6:35 AM 32.0 °F 20.8 °F 28.2 °F 86% 29.86 in 10.0 mi West 17.3 mph - N/A   Overcast
6:54 AM 32.0 °F 21.2 °F 27.5 °F 83% 29.86 in 10.0 mi West 16.1 mph 24.2 mph N/A   Overcast
7:15 AM 32.0 °F 20.8 °F 27.0 °F 82% 29.87 in 10.0 mi West 17.3 mph 23.0 mph N/A   Overcast
7:34 AM 32.0 °F 20.8 °F 26.6 °F 80% 29.87 in 10.0 mi West 17.3 mph 21.9 mph N/A   Overcast
7:54 AM 32.0 °F 21.6 °F 26.6 °F 80% 29.88 in 10.0 mi West 15.0 mph 21.9 mph N/A   Overcast
8:15 AM 32.0 °F 22.5 °F 26.8 °F 81% 29.89 in 10.0 mi West 12.7 mph 20.7 mph N/A   Overcast
8:34 AM 32.0 °F 23.0 °F 27.7 °F 84% 29.89 in 10.0 mi West 11.5 mph 17.3 mph N/A   Overcast
8:55 AM 32.0 °F 23.0 °F 28.8 °F 88% 29.89 in 5.0 mi West 11.5 mph - N/A Snow Light Snow
9:15 AM 32.0 °F 22.1 °F 29.3 °F 90% 29.90 in 3.0 mi West 13.8 mph 18.4 mph N/A Snow Light Snow
9:34 AM 32.0 °F 22.1 °F 29.3 °F 90% 29.91 in 4.0 mi West 13.8 mph - N/A Snow Light Snow
9:55 AM 32.0 °F 21.6 °F 29.7 °F 91% 29.91 in 4.0 mi West 15.0 mph 19.6 mph N/A Snow Light Snow
10:15 AM 32.0 °F 20.8 °F 28.9 °F 88% 29.92 in 7.0 mi West 17.3 mph 24.2 mph N/A Snow Snow
10:34 AM 32.2 °F 21.4 °F 28.2 °F 85% 29.92 in 10.0 mi West 16.1 mph 24.2 mph N/A Rain Light Rain
10:55 AM 32.4 °F 22.1 °F 27.5 °F 82% 29.93 in 10.0 mi West 15.0 mph - N/A Snow Light Snow
11:14 AM 33.1 °F 23.0 °F 27.9 °F 81% 29.93 in 10.0 mi West 15.0 mph 23.0 mph N/A Snow Light Snow
11:34 AM 33.4 °F 22.7 °F 27.1 °F 78% 29.94 in 10.0 mi West 17.3 mph 25.3 mph N/A   Overcast
11:55 AM 34.0 °F 23.0 °F 26.6 °F 74% 29.94 in 10.0 mi West 18.4 mph 27.6 mph N/A   Mostly Cloudy
12:14 PM 34.5 °F 23.1 °F 27.1 °F 74% 29.94 in 10.0 mi West 20.7 mph 24.2 mph N/A   Mostly Cloudy
12:35 PM 35.2 °F 24.4 °F 26.6 °F 71% 29.94 in 10.0 mi West 19.6 mph 28.8 mph N/A   Mostly Cloudy
12:55 PM 35.8 °F 24.8 °F 26.4 °F 69% 29.94 in 10.0 mi WNW 20.7 mph 26.5 mph N/A   Mostly Cloudy
1:14 PM 34.0 °F 23.4 °F 25.2 °F 70% 29.94 in 10.0 mi West 17.3 mph 23.0 mph N/A   Mostly Cloudy
1:35 PM 34.7 °F 25.1 °F 25.9 °F 70% 29.94 in 10.0 mi West 15.0 mph 23.0 mph N/A   Overcast
1:54 PM 36.0 °F 25.3 °F 25.5 °F 66% 29.94 in 10.0 mi West 19.6 mph 26.5 mph N/A   Overcast
2:14 PM 35.6 °F 25.9 °F 24.1 °F 63% 29.94 in 10.0 mi West 16.1 mph 21.9 mph N/A   Overcast
2:35 PM 34.7 °F 24.3 °F 24.3 °F 66% 29.94 in 10.0 mi West 17.3 mph 25.3 mph N/A   Overcast
2:54 PM 35.1 °F 24.5 °F 23.5 °F 63% 29.94 in 10.0 mi West 18.4 mph 21.9 mph N/A   Overcast
3:14 PM 35.8 °F 25.7 °F 23.9 °F 62% 29.94 in 10.0 mi West 17.3 mph 20.7 mph N/A   Overcast
3:35 PM 35.4 °F 26.0 °F 23.5 °F 62% 29.94 in 10.0 mi West 15.0 mph 18.4 mph N/A   Overcast
3:54 PM 35.2 °F 24.7 °F 22.8 °F 61% 29.94 in 10.0 mi West 18.4 mph 23.0 mph N/A   Overcast
4:15 PM 35.6 °F 26.2 °F 23.0 °F 60% 29.94 in 10.0 mi West 15.0 mph - N/A   Overcast
4:35 PM 35.6 °F 25.5 °F 23.0 °F 60% 29.96 in 10.0 mi West 17.3 mph 24.2 mph N/A   Overcast
4:54 PM 35.6 °F 26.6 °F 23.4 °F 61% 29.96 in 10.0 mi West 13.8 mph - N/A   Overcast
5:15 PM 35.2 °F 25.8 °F 23.0 °F 61% 29.96 in 10.0 mi West 15.0 mph 18.4 mph N/A   Overcast
5:34 PM 34.9 °F 24.9 °F 21.9 °F 59% 29.96 in 10.0 mi West 16.1 mph 21.9 mph N/A   Overcast
5:54 PM 34.7 °F 25.5 °F 21.9 °F 60% 29.97 in 10.0 mi West 13.8 mph 18.4 mph N/A   Overcast
6:15 PM 34.7 °F 26.9 °F 21.6 °F 59% 29.98 in 10.0 mi West 10.4 mph - N/A   Overcast
6:34 PM 34.7 °F 26.4 °F 22.5 °F 61% 29.98 in 10.0 mi West 11.5 mph - N/A   Overcast
6:54 PM 34.3 °F 26.5 °F 21.9 °F 60% 29.99 in 10.0 mi West 10.4 mph - N/A   Overcast
7:15 PM 34.3 °F 26.5 °F 21.2 °F 59% 29.99 in 10.0 mi West 10.4 mph - N/A   Overcast
7:34 PM 34.0 °F 26.0 °F 20.1 °F 57% 29.99 in 10.0 mi West 10.4 mph - N/A   Overcast
7:55 PM 33.6 °F 26.8 °F 19.9 °F 57% 29.99 in 10.0 mi WNW 8.1 mph - N/A   Mostly Cloudy
8:15 PM 33.3 °F 28.9 °F 20.5 °F 59% 30.00 in 10.0 mi WNW 4.6 mph - N/A   Overcast
8:34 PM 32.0 °F 28.7 °F 21.6 °F 65% 30.00 in 10.0 mi WNW 3.5 mph - N/A   Mostly Cloudy
8:55 PM 31.1 °F 27.7 °F 21.4 °F 67% 30.01 in 10.0 mi West 3.5 mph - N/A   Clear
9:14 PM 31.1 °F 26.4 °F 21.2 °F 67% 30.01 in 10.0 mi West 4.6 mph - N/A   Clear
9:34 PM 31.6 °F 26.0 °F 20.3 °F 63% 30.02 in 10.0 mi West 5.8 mph - N/A   Clear
9:55 PM 30.9 °F 25.2 °F 20.1 °F 64% 30.02 in 10.0 mi West 5.8 mph - N/A   Scattered Clouds
10:14 PM 30.2 °F 24.3 °F 20.3 °F 67% 30.03 in 10.0 mi WNW 5.8 mph - N/A   Clear
10:34 PM 29.5 °F 25.9 °F 20.3 °F 69% 30.03 in 10.0 mi WNW 3.5 mph - N/A   Scattered Clouds
10:55 PM 29.3 °F 25.6 °F 20.3 °F 69% 30.03 in 10.0 mi West 3.5 mph - N/A   Clear
11:14 PM 28.9 °F - 21.2 °F 73% 30.04 in 10.0 mi Calm Calm - N/A   Scattered Clouds
11:35 PM 28.4 °F - 22.1 °F 77% 30.04 in 10.0 mi Calm Calm - N/A   Scattered Clouds
11:55 PM 27.3 °F - 21.2 °F 78% 30.04 in 10.0 mi Calm Calm - N/A   Clear